Regional Weather Roundup
Issued by NWS Jackson, KY

Home | Current Version | Previous Version | Graphics & Text | Print | Product List | Glossary On
Versions: 1 2 3 4 5 6 7 8 9 10 11 12 13 14 15 16 17 18 19 20 21 22 23 24 25 26 27
000
ASUS43 KJKL 280810
RWRJKL

EAST KENTUCKY HOURLY WEATHER ROUNDUP
NATIONAL WEATHER SERVICE JACKSON KY
400 AM EDT WED SEP 28 2016

NOTE: "FAIR" INDICATES FEW OR NO CLOUDS BELOW 12,000 FEET WITH
NO SIGNIFICANT WEATHER AND/OR OBSTRUCTIONS TO VISIBILITY.

* THESE REPORTS ARE NOT UNDER NWS QUALITY CONTROL AND MAY NOT
  REPORT WEATHER SUCH AS PRECIPITATION AND FOG.

KYZ079-080-083-085-087-088-110-112-115-119-120-280900
...EASTERN KENTUCKY...

CITY           SKY/WX    TMP DP  RH WIND       PRES   REMARKS
JACKSON        CLEAR     52  46  80 CALM      29.93F
LONDON         CLEAR     47  44  90 CALM      29.94F
SOMERSET*      CLEAR     46  46 100 CALM      29.95F
MONTICELLO*    CLEAR     46  45  96 W12       29.96F
WILLIAMSBURG*  SUNNY     46  46 100 CALM      29.95F
MIDDLESBORO*   PTCLDY    47  47  97 CALM      29.97S
HARLAN APT*    MOSUNNY   46  46 100 CALM      29.97S
PIKE CO APT*     N/A     53  48  83 S5        29.95S
BIG SANDY APT* SUNNY     54  46  73 S3        29.94F
MOREHEAD APT*  MOSUNNY   54  48  82 CALM      29.93F
ASHLAND*       PTCLDY    50  45  81 CALM      29.90S
$$

KYZ035-036-041-042-044-050-067-078-099-280900
...CENTRAL KENTUCKY...

CITY           SKY/WX    TMP DP  RH WIND       PRES   REMARKS
MT STERLING*   CLEAR     54  46  76 SW7       29.92F
FLEMING/MASON* CLEAR     53  44  70 S8        29.90F
DANVILLE*      CLEAR     52  45  76 S6        29.93S
LEXINGTON      CLEAR     56  44  64 S8        29.90F
FRANKFORT      CLEAR     56  45  66 S6        29.88F
LOUISVILLE     MOCLDY    65  45  48 S9        29.85F
LEBANON*         N/A     57  46  67 S8        29.91F
GLASGOW*       CLEAR     50  50 100 CALM      29.92S
BOWLING GREEN  CLOUDY    53  50  89 CALM      29.91F
$$

KYZ091>093-OHZ055-061-077-WVZ005-015-034-035-042-280900
...SOUTHERN OHIO/WEST VIRGINIA...

CITY           SKY/WX    TMP DP  RH WIND       PRES   REMARKS
COVINGTON      MOCLDY    57  48  72 S9        29.85F
COLUMBUS       PTCLDY    55  46  71 SE3       29.86F
DAYTON         MOCLDY    59  47  64 S10       29.83F
WILMINGTON     PTCLDY    55  46  71 S7        29.86F
HUNTINGTON     CLEAR     49  45  86 E3        29.91F
CHARLESTON     PTCLDY    47  46  97 CALM      29.93F
PINEVILLE*     CLEAR     46  43  90 MISG      30.02S
BECKLEY        CLEAR     46  43  89 CALM      29.98F
BLUEFIELD      CLEAR     53  38  56 SW3       29.99F
LOGAN CO APT*    N/A     52  48  87 CALM      29.94F
$$

VAZ002-007-008-TNZ017-027-036-066-071-280900
...SOUTHWEST VIRGINIA/EAST TENNESSEE...

CITY           SKY/WX    TMP DP  RH WIND       PRES   REMARKS
WISE*          PTCLDY    54  36  50 CALM      30.00S
JONESVILLE*      N/A     48  46  93 CALM      29.98F
ABINGDON*      MOCLDY    57  57 100 CALM      29.96F
BRISTOL        FOG       56  55  97 CALM      29.94F VSB 1
MORRISTOWN*    CLOUDY    57  52  82 CALM      29.94R
SEVIERVILLE*   CLOUDY    61  59  94 CALM      29.94S
KNOXVILLE      CLEAR     61  53  75 SE3       29.93S
OAK RIDGE      CLEAR     53  50  89 CALM      29.96S
CROSSVILLE     CLEAR     46  43  89 CALM      29.97F
NASHVILLE      CLEAR     53  49  86 CALM      29.93F
$$

...KEY TO REMARKS...
VSB - VISIBILITY IN MILES
WCI - WIND CHILL INDEX
HX  - HEAT INDEX

$$




USA.gov is the U.S. government's official web portal to all federal, state and local government web resources and services.